,,,PA_Meas_PMT16A,,PR_Meas_QMR101_102,,RH_Meas_QMH101,,SR_Meas_QMS101,,TA_Meas_QMH101,,GenWind,,GenWind,
date,time,status,PA,status,PR,status,RH,status,SR,status,TA,status,DirAvg,status,SpdAvg,
2010-12-26, 00:00:04,VALID,1008.03,VALID,0,VALID,103.794,VALID,0,VALID,23.4017,VALID,1,VALID,0,
2010-12-26, 00:01:04,VALID,1008.05,VALID,0,VALID,103.802,VALID,0.105969,VALID,23.3805,VALID,1,VALID,0,
2010-12-26, 00:02:04,VALID,1008.01,VALID,0,VALID,103.817,VALID,0,VALID,23.3805,VALID,1,VALID,0,
2010-12-26, 00:03:04,VALID,1008.03,VALID,0,VALID,103.794,VALID,0,VALID,23.4017,VALID,1,VALID,0,
2010-12-26, 00:04:04,VALID,1008.05,VALID,0,VALID,103.794,VALID,0.105969,VALID,23.361,VALID,1,VALID,0,
2010-12-26, 00:05:04,VALID,1008.02,VALID,0,VALID,103.802,VALID,0.105969,VALID,23.3823,VALID,1,VALID,0,
2010-12-26, 00:06:04,VALID,1007.97,VALID,0,VALID,103.802,VALID,0,VALID,23.3823,VALID,1,VALID,0,
2010-12-26, 00:07:04,VALID,1007.99,VALID,0,VALID,103.794,VALID,0.105969,VALID,23.361,VALID,1,VALID,0,
2010-12-26, 00:08:04,VALID,1007.97,VALID,0,VALID,103.794,VALID,0,VALID,23.361,VALID,1,VALID,0,
2010-12-26, 00:09:04,VALID,1007.98,VALID,0,VALID,103.787,VALID,0.105969,VALID,23.3415,VALID,1,VALID,0,
2010-12-26, 00:10:04,VALID,1007.95,VALID,0,VALID,103.779,VALID,0.105969,VALID,23.3415,VALID,1,VALID,0,
2010-12-26, 00:11:04,VALID,1007.96,VALID,0,VALID,103.779,VALID,0,VALID,23.3415,VALID,1,VALID,0,
2010-12-26, 00:12:04,VALID,1007.95,VALID,0,VALID,103.764,VALID,0.105969,VALID,23.3628,VALID,1,VALID,0,
2010-12-26, 00:13:04,VALID,1007.94,VALID,0,VALID,103.748,VALID,0.105969,VALID,23.3415,VALID,1,VALID,0,
2010-12-26, 00:14:04,VALID,1007.97,VALID,0,VALID,103.764,VALID,0,VALID,23.3628,VALID,1,VALID,0,
2010-12-26, 00:15:04,VALID,1007.94,VALID,0,VALID,103.748,VALID,0.105969,VALID,23.3433,VALID,1,VALID,0,
2010-12-26, 00:16:04,VALID,1007.95,VALID,0,VALID,103.779,VALID,0,VALID,23.3238,VALID,1,VALID,0,
2010-12-26, 00:17:04,VALID,1007.93,VALID,0,VALID,103.764,VALID,0.105969,VALID,23.3026,VALID,1,VALID,0,
2010-12-26, 00:18:04,VALID,1007.92,VALID,0,VALID,103.787,VALID,0,VALID,23.3238,VALID,1,VALID,0,
2010-12-26, 00:19:04,VALID,1007.9,VALID,0,VALID,103.764,VALID,0.105969,VALID,23.3238,VALID,1,VALID,0,
2010-12-26, 00:20:04,VALID,1007.92,VALID,0,VALID,103.764,VALID,0,VALID,23.3026,VALID,1,VALID,0,
2010-12-26, 00:21:04,VALID,1007.9,VALID,0,VALID,103.756,VALID,0,VALID,23.3238,VALID,1,VALID,0,
2010-12-26, 00:22:04,VALID,1007.91,VALID,0,VALID,103.756,VALID,0,VALID,23.3043,VALID,1,VALID,0,
2010-12-26, 00:23:04,VALID,1007.87,VALID,0,VALID,103.764,VALID,0,VALID,23.2831,VALID,1,VALID,0,
2010-12-26, 00:24:04,VALID,1007.88,VALID,0,VALID,103.764,VALID,0,VALID,23.3043,VALID,1,VALID,0,
2010-12-26, 00:25:04,VALID,1007.86,VALID,0,VALID,103.756,VALID,0.105969,VALID,23.3043,VALID,1,VALID,0,
2010-12-26, 00:26:04,VALID,1007.84,VALID,0,VALID,103.703,VALID,0.105969,VALID,23.2831,VALID,1,VALID,0,
2010-12-26, 00:27:04,VALID,1007.83,VALID,0,VALID,103.741,VALID,0.105969,VALID,23.2831,VALID,1,VALID,0,
2010-12-26, 00:28:04,VALID,1007.82,VALID,0,VALID,103.741,VALID,0.105969,VALID,23.3043,VALID,1,VALID,0,
2010-12-26, 00:29:04,VALID,1007.81,VALID,0,VALID,103.718,VALID,0.105969,VALID,23.3043,VALID,1,VALID,0,
2010-12-26, 00:30:04,VALID,1007.8,VALID,0,VALID,103.733,VALID,0,VALID,23.2636,VALID,1,VALID,0,
2010-12-26, 00:31:04,VALID,1007.8,VALID,0,VALID,103.756,VALID,0,VALID,23.2848,VALID,1,VALID,0,
2010-12-26, 00:32:04,VALID,1007.81,VALID,0,VALID,103.748,VALID,0.105969,VALID,23.2441,VALID,1,VALID,0,
2010-12-26, 00:33:04,VALID,1007.84,VALID,0,VALID,103.764,VALID,0,VALID,23.2441,VALID,1,VALID,0,
2010-12-26, 00:34:04,VALID,1007.83,VALID,0,VALID,103.764,VALID,0.105969,VALID,23.2459,VALID,1,VALID,0,
2010-12-26, 00:35:04,VALID,1007.83,VALID,0,VALID,103.771,VALID,0,VALID,23.2459,VALID,1,VALID,0,
2010-12-26, 00:36:04,VALID,1007.82,VALID,0,VALID,103.756,VALID,0.105969,VALID,23.2246,VALID,1,VALID,0,
2010-12-26, 00:37:04,VALID,1007.8,VALID,0,VALID,103.741,VALID,0,VALID,23.2459,VALID,1,VALID,0,
2010-12-26, 00:38:04,VALID,1007.77,VALID,0,VALID,103.726,VALID,0,VALID,23.2654,VALID,1,VALID,0,
2010-12-26, 00:39:04,VALID,1007.76,VALID,0,VALID,103.741,VALID,0.105969,VALID,23.2459,VALID,1,VALID,0,
2010-12-26, 00:40:04,VALID,1007.75,VALID,0,VALID,103.756,VALID,0.105969,VALID,23.2459,VALID,1,VALID,0,
2010-12-26, 00:41:04,VALID,1007.75,VALID,0,VALID,103.771,VALID,0.105969,VALID,23.2264,VALID,1,VALID,0,
2010-12-26, 00:42:04,VALID,1007.74,VALID,0,VALID,103.764,VALID,0,VALID,23.2264,VALID,1,VALID,0,
2010-12-26, 00:43:04,VALID,1007.72,VALID,0,VALID,103.748,VALID,0.105969,VALID,23.1857,VALID,1,VALID,0,
2010-12-26, 00:44:04,VALID,1007.69,VALID,0,VALID,103.771,VALID,0.105969,VALID,23.1857,VALID,1,VALID,0,
2010-12-26, 00:45:04,VALID,1007.67,VALID,0,VALID,103.756,VALID,0,VALID,23.2069,VALID,1,VALID,0,
2010-12-26, 00:46:04,VALID,1007.68,VALID,0,VALID,103.756,VALID,0,VALID,23.1874,VALID,1,VALID,0,
2010-12-26, 00:47:04,VALID,1007.65,VALID,0,VALID,103.756,VALID,0.105969,VALID,23.1662,VALID,1,VALID,0,
2010-12-26, 00:48:04,VALID,1007.63,VALID,0,VALID,103.756,VALID,0,VALID,23.1679,VALID,1,VALID,0,
2010-12-26, 00:49:04,VALID,1007.6,VALID,0,VALID,103.764,VALID,0.105969,VALID,23.1679,VALID,1,VALID,0,
2010-12-26, 00:50:04,VALID,1007.59,VALID,0,VALID,103.771,VALID,0.105969,VALID,23.1679,VALID,1,VALID,0,
2010-12-26, 00:51:04,VALID,1007.58,VALID,0,VALID,103.748,VALID,0,VALID,23.1679,VALID,1,VALID,0,
2010-12-26, 00:52:04,VALID,1007.56,VALID,0,VALID,103.779,VALID,0,VALID,23.1485,VALID,1,VALID,0,
2010-12-26, 00:53:04,VALID,1007.55,VALID,0,VALID,103.756,VALID,0.105969,VALID,23.1272,VALID,1,VALID,0,
2010-12-26, 00:54:04,VALID,1007.53,VALID,0,VALID,103.756,VALID,0,VALID,23.129,VALID,1,VALID,0,
2010-12-26, 00:55:04,VALID,1007.51,VALID,0,VALID,103.771,VALID,0.105969,VALID,23.1272,VALID,1,VALID,0,
2010-12-26, 00:56:04,VALID,1007.5,VALID,0,VALID,103.764,VALID,0,VALID,23.1077,VALID,1,VALID,0,
2010-12-26, 00:57:04,VALID,1007.46,VALID,0,VALID,103.771,VALID,0,VALID,23.1095,VALID,1,VALID,0,
2010-12-26, 00:58:04,VALID,1007.46,VALID,0,VALID,103.748,VALID,0,VALID,23.129,VALID,1,VALID,0,
2010-12-26, 00:59:04,VALID,1007.44,VALID,0,VALID,103.741,VALID,0.105969,VALID,23.1485,VALID,1,VALID,0,
2010-12-26, 01:00:04,VALID,1007.42,VALID,0,VALID,103.748,VALID,0.105969,VALID,23.1272,VALID,1,VALID,0,
2010-12-26, 01:01:04,VALID,1007.39,VALID,0,VALID,103.733,VALID,0.105969,VALID,23.1077,VALID,1,VALID,0,
2010-12-26, 01:02:04,VALID,1007.38,VALID,0,VALID,103.748,VALID,0,VALID,23.129,VALID,1,VALID,0,
2010-12-26, 01:03:04,VALID,1007.34,VALID,0,VALID,103.718,VALID,0.105969,VALID,23.1272,VALID,1,VALID,0,
2010-12-26, 01:04:04,VALID,1007.36,VALID,0,VALID,103.687,VALID,0,VALID,23.1485,VALID,1,VALID,0,
2010-12-26, 01:05:04,VALID,1007.36,VALID,0,VALID,103.703,VALID,0,VALID,23.129,VALID,1,VALID,0,
2010-12-26, 01:06:04,VALID,1007.34,VALID,0,VALID,103.703,VALID,0,VALID,23.1485,VALID,1,VALID,0,
2010-12-26, 01:07:04,VALID,1007.32,VALID,0,VALID,103.695,VALID,0.105969,VALID,23.1485,VALID,1,VALID,0,
2010-12-26, 01:08:04,VALID,1007.31,VALID,0,VALID,103.718,VALID,0.105969,VALID,23.1485,VALID,1,VALID,0,
2010-12-26, 01:09:04,VALID,1007.29,VALID,0,VALID,103.703,VALID,0.105969,VALID,23.1485,VALID,1,VALID,0,
2010-12-26, 01:10:04,VALID,1007.27,VALID,0,VALID,103.695,VALID,0.105969,VALID,23.1272,VALID,1,VALID,0,
2010-12-26, 01:11:04,VALID,1007.27,VALID,0,VALID,103.703,VALID,0.105969,VALID,23.1485,VALID,1,VALID,0,
2010-12-26, 01:12:04,VALID,1007.26,VALID,0,VALID,103.71,VALID,0.105969,VALID,23.1272,VALID,1,VALID,0,
2010-12-26, 01:13:04,VALID,1007.24,VALID,0,VALID,103.695,VALID,0,VALID,23.1485,VALID,1,VALID,0,
2010-12-26, 01:14:04,VALID,1007.29,VALID,0,VALID,103.649,VALID,0,VALID,23.1272,VALID,1,VALID,0,
2010-12-26, 01:15:04,VALID,1007.29,VALID,0,VALID,103.695,VALID,0.105969,VALID,23.1485,VALID,1,VALID,0,
2010-12-26, 01:16:04,VALID,1007.26,VALID,0,VALID,103.687,VALID,0,VALID,23.1272,VALID,1,VALID,0,
2010-12-26, 01:17:04,VALID,1007.23,VALID,0,VALID,103.672,VALID,0,VALID,23.1485,VALID,1,VALID,0,
2010-12-26, 01:18:04,VALID,1007.22,VALID,0,VALID,103.664,VALID,0,VALID,23.129,VALID,1,VALID,0,
2010-12-26, 01:19:04,VALID,1007.2,VALID,0,VALID,103.68,VALID,0.105969,VALID,23.1485,VALID,1,VALID,0,
2010-12-26, 01:20:04,VALID,1007.18,VALID,0,VALID,103.672,VALID,0,VALID,23.1272,VALID,1,VALID,0,
2010-12-26, 01:21:04,VALID,1007.18,VALID,0,VALID,103.657,VALID,0,VALID,23.1272,VALID,1,VALID,0,
2010-12-26, 01:22:04,VALID,1007.15,VALID,0,VALID,103.664,VALID,0,VALID,23.1272,VALID,1,VALID,0,
2010-12-26, 01:23:04,VALID,1007.17,VALID,0,VALID,103.664,VALID,0.105969,VALID,23.1485,VALID,1,VALID,0,
2010-12-26, 01:24:04,VALID,1007.15,VALID,0,VALID,103.649,VALID,0.105969,VALID,23.1272,VALID,1,VALID,0,
2010-12-26, 01:25:04,VALID,1007.14,VALID,0,VALID,103.657,VALID,0,VALID,23.1272,VALID,1,VALID,0,
2010-12-26, 01:26:04,VALID,1007.14,VALID,0,VALID,103.619,VALID,0.105969,VALID,23.1272,VALID,1,VALID,0,
2010-12-26, 01:27:04,VALID,1007.17,VALID,0,VALID,103.611,VALID,0.105969,VALID,23.1467,VALID,1,VALID,0,
2010-12-26, 01:28:04,VALID,1007.14,VALID,0,VALID,103.619,VALID,0,VALID,23.1485,VALID,1,VALID,0,
2010-12-26, 01:29:04,VALID,1007.13,VALID,0,VALID,103.634,VALID,0,VALID,23.1485,VALID,1,VALID,0,
2010-12-26, 01:30:04,VALID,1007.12,VALID,0,VALID,103.649,VALID,0,VALID,23.1272,VALID,1,VALID,0,
2010-12-26, 01:31:04,VALID,1007.1,VALID,0,VALID,103.634,VALID,0.105969,VALID,23.1679,VALID,1,VALID,0,
2010-12-26, 01:32:04,VALID,1007.09,VALID,0,VALID,103.642,VALID,0.105969,VALID,23.1272,VALID,1,VALID,0,
2010-12-26, 01:33:04,VALID,1007.1,VALID,0,VALID,103.649,VALID,0.105969,VALID,23.1272,VALID,1,VALID,0,
2010-12-26, 01:34:04,VALID,1007.08,VALID,0,VALID,103.642,VALID,0,VALID,23.1485,VALID,1,VALID,0,
2010-12-26, 01:35:04,VALID,1007.07,VALID,0,VALID,103.634,VALID,0,VALID,23.129,VALID,1,VALID,0,
2010-12-26, 01:36:04,VALID,1007.05,VALID,0,VALID,103.642,VALID,0.105969,VALID,23.129,VALID,1,VALID,0,
2010-12-26, 01:37:04,VALID,1007.01,VALID,0,VALID,103.634,VALID,0,VALID,23.1272,VALID,1,VALID,0,
2010-12-26, 01:38:04,VALID,1007.02,VALID,0,VALID,103.611,VALID,0,VALID,23.1485,VALID,1,VALID,0,
2010-12-26, 01:39:04,VALID,1006.99,VALID,0,VALID,103.596,VALID,0,VALID,23.1467,VALID,1,VALID,0,
2010-12-26, 01:40:04,VALID,1006.98,VALID,0,VALID,103.596,VALID,0.105969,VALID,23.1679,VALID,1,VALID,0,
2010-12-26, 01:41:04,VALID,1006.97,VALID,0,VALID,103.603,VALID,0.105969,VALID,23.1679,VALID,1,VALID,0,
2010-12-26, 01:42:04,VALID,1006.98,VALID,0,VALID,103.603,VALID,0.105969,VALID,23.1485,VALID,1,VALID,0,
2010-12-26, 01:43:04,VALID,1006.95,VALID,0,VALID,103.603,VALID,0,VALID,23.1679,VALID,1,VALID,0,
2010-12-26, 01:44:04,VALID,1006.94,VALID,0,VALID,103.573,VALID,0,VALID,23.1467,VALID,1,VALID,0,
2010-12-26, 01:45:04,VALID,1006.93,VALID,0,VALID,103.581,VALID,0.105969,VALID,23.1679,VALID,1,VALID,0,
2010-12-26, 01:46:04,VALID,1006.91,VALID,0,VALID,103.565,VALID,0.105969,VALID,23.1679,VALID,1,VALID,0,
2010-12-26, 01:47:04,VALID,1006.88,VALID,0,VALID,103.588,VALID,0.105969,VALID,23.1662,VALID,1,VALID,0,
2010-12-26, 01:48:04,VALID,1006.9,VALID,0,VALID,103.588,VALID,0.105969,VALID,23.1679,VALID,1,VALID,0,
2010-12-26, 01:49:04,VALID,1006.88,VALID,0,VALID,103.581,VALID,0.105969,VALID,23.1679,VALID,1,VALID,0,
2010-12-26, 01:50:04,VALID,1006.87,VALID,0,VALID,103.588,VALID,0,VALID,23.1679,VALID,1,VALID,0,
2010-12-26, 01:51:04,VALID,1006.83,VALID,0,VALID,103.588,VALID,0,VALID,23.1467,VALID,1,VALID,0,
2010-12-26, 01:52:04,VALID,1006.81,VALID,0,VALID,103.573,VALID,0,VALID,23.1874,VALID,1,VALID,0,
2010-12-26, 01:53:04,VALID,1006.83,VALID,0,VALID,103.581,VALID,0.105969,VALID,23.1662,VALID,1,VALID,0,
2010-12-26, 01:54:04,VALID,1006.82,VALID,0,VALID,103.558,VALID,0,VALID,23.1874,VALID,1,VALID,0,
2010-12-26, 01:55:04,VALID,1006.86,VALID,0,VALID,103.558,VALID,0.105969,VALID,23.1857,VALID,1,VALID,0,
2010-12-26, 01:56:04,VALID,1006.82,VALID,0,VALID,103.581,VALID,0,VALID,23.1874,VALID,1,VALID,0,
2010-12-26, 01:57:04,VALID,1006.81,VALID,0,VALID,103.588,VALID,0.105969,VALID,23.1874,VALID,1,VALID,0,
2010-12-26, 01:58:04,VALID,1006.8,VALID,0,VALID,103.588,VALID,0,VALID,23.1467,VALID,1,VALID,0,
2010-12-26, 01:59:04,VALID,1006.82,VALID,0,VALID,103.588,VALID,0.105969,VALID,23.1662,VALID,1,VALID,0,
2010-12-26, 02:00:04,VALID,1006.81,VALID,0,VALID,103.581,VALID,0.105969,VALID,23.2069,VALID,1,VALID,0,
2010-12-26, 02:01:04,VALID,1006.79,VALID,0,VALID,103.573,VALID,0.105969,VALID,23.2069,VALID,1,VALID,0,
2010-12-26, 02:02:04,VALID,1006.76,VALID,0,VALID,103.573,VALID,0.105969,VALID,23.1857,VALID,1,VALID,0,
2010-12-26, 02:03:04,VALID,1006.74,VALID,0,VALID,103.573,VALID,0.105969,VALID,23.1857,VALID,1,VALID,0,
2010-12-26, 02:04:04,VALID,1006.73,VALID,0,VALID,103.588,VALID,0.105969,VALID,23.1857,VALID,1,VALID,0,
2010-12-26, 02:05:04,VALID,1006.7,VALID,0,VALID,103.565,VALID,0.105969,VALID,23.1662,VALID,1,VALID,0,
2010-12-26, 02:06:04,VALID,1006.69,VALID,0,VALID,103.573,VALID,0.105969,VALID,23.2069,VALID,1,VALID,0,
2010-12-26, 02:07:04,VALID,1006.67,VALID,0,VALID,103.573,VALID,0.105969,VALID,23.2069,VALID,1,VALID,0,
2010-12-26, 02:08:04,VALID,1006.67,VALID,0,VALID,103.565,VALID,0.105969,VALID,23.2069,VALID,1,VALID,0,
2010-12-26, 02:09:04,VALID,1006.68,VALID,0,VALID,103.55,VALID,0.105969,VALID,23.1857,VALID,1,VALID,0,
2010-12-26, 02:10:04,VALID,1006.63,VALID,0,VALID,103.581,VALID,0,VALID,23.1892,VALID,1,VALID,0,
2010-12-26, 02:11:04,VALID,1006.62,VALID,0,VALID,103.558,VALID,0,VALID,23.1892,VALID,1,VALID,0,
2010-12-26, 02:12:04,VALID,1006.6,VALID,0,VALID,103.542,VALID,0,VALID,23.2087,VALID,1,VALID,0,
2010-12-26, 02:13:04,VALID,1006.59,VALID,0,VALID,103.565,VALID,0,VALID,23.1874,VALID,1,VALID,0,
2010-12-26, 02:14:04,VALID,1006.58,VALID,0,VALID,103.55,VALID,0,VALID,23.2087,VALID,1,VALID,0,
2010-12-26, 02:15:04,VALID,1006.58,VALID,0,VALID,103.573,VALID,0,VALID,23.1874,VALID,1,VALID,0,
2010-12-26, 02:16:04,VALID,1006.58,VALID,0,VALID,103.558,VALID,0,VALID,23.2087,VALID,1,VALID,0,
2010-12-26, 02:17:04,VALID,1006.57,VALID,0,VALID,103.55,VALID,0,VALID,23.1874,VALID,1,VALID,0,
2010-12-26, 02:18:04,VALID,1006.58,VALID,0,VALID,103.542,VALID,0,VALID,23.2282,VALID,1,VALID,0,
2010-12-26, 02:19:04,VALID,1006.55,VALID,0,VALID,103.535,VALID,0,VALID,23.2087,VALID,1,VALID,0,
2010-12-26, 02:20:04,VALID,1006.59,VALID,0,VALID,103.55,VALID,0,VALID,23.2087,VALID,1,VALID,0,
2010-12-26, 02:21:04,VALID,1006.56,VALID,0,VALID,103.558,VALID,0,VALID,23.1874,VALID,1,VALID,0,
2010-12-26, 02:22:04,VALID,1006.58,VALID,0,VALID,103.542,VALID,0,VALID,23.2282,VALID,1,VALID,0,
2010-12-26, 02:23:04,VALID,1006.58,VALID,0,VALID,103.535,VALID,0,VALID,23.2282,VALID,1,VALID,0,
2010-12-26, 02:24:04,VALID,1006.55,VALID,0,VALID,103.52,VALID,0,VALID,23.2282,VALID,1,VALID,0,
2010-12-26, 02:25:04,VALID,1006.55,VALID,0,VALID,103.535,VALID,0,VALID,23.2246,VALID,1,VALID,0,
2010-12-26, 02:26:04,VALID,1006.57,VALID,0,VALID,103.512,VALID,0,VALID,23.2246,VALID,1,VALID,0,
2010-12-26, 02:27:04,VALID,1006.54,VALID,0,VALID,103.512,VALID,0,VALID,23.2459,VALID,1,VALID,0,
2010-12-26, 02:28:04,VALID,1006.53,VALID,0,VALID,103.52,VALID,0.105969,VALID,23.2441,VALID,1,VALID,0,
2010-12-26, 02:29:04,VALID,1006.54,VALID,0,VALID,103.52,VALID,0,VALID,23.2459,VALID,1,VALID,0,
2010-12-26, 02:30:04,VALID,1006.5,VALID,0,VALID,103.512,VALID,0.105969,VALID,23.2459,VALID,1,VALID,0,
2010-12-26, 02:31:04,VALID,1006.52,VALID,0,VALID,103.512,VALID,0,VALID,23.2441,VALID,1,VALID,0,
2010-12-26, 02:32:04,VALID,1006.51,VALID,0,VALID,103.497,VALID,0,VALID,23.2654,VALID,1,VALID,0,
2010-12-26, 02:33:04,VALID,1006.52,VALID,0,VALID,103.497,VALID,0,VALID,23.2848,VALID,1,VALID,0,
2010-12-26, 02:34:04,VALID,1006.55,VALID,0,VALID,103.497,VALID,0,VALID,23.2654,VALID,1,VALID,0,
2010-12-26, 02:35:04,VALID,1006.53,VALID,0,VALID,103.497,VALID,0,VALID,23.2654,VALID,1,VALID,0,
2010-12-26, 02:36:04,VALID,1006.54,VALID,0,VALID,103.527,VALID,0.105969,VALID,23.2848,VALID,1,VALID,0,
2010-12-26, 02:37:04,VALID,1006.56,VALID,0,VALID,103.512,VALID,0.105969,VALID,23.2848,VALID,1,VALID,0,
2010-12-26, 02:38:04,VALID,1006.59,VALID,0,VALID,103.504,VALID,0.105969,VALID,23.2848,VALID,1,VALID,0,
2010-12-26, 02:39:04,VALID,1006.58,VALID,0,VALID,103.52,VALID,0.105969,VALID,23.2848,VALID,1,VALID,0,
2010-12-26, 02:40:04,VALID,1006.6,VALID,0,VALID,103.52,VALID,0.105969,VALID,23.2654,VALID,1,VALID,0,
2010-12-26, 02:41:04,VALID,1006.64,VALID,0,VALID,103.542,VALID,0.105969,VALID,23.2848,VALID,1,VALID,0,
2010-12-26, 02:42:04,VALID,1006.64,VALID,0,VALID,103.527,VALID,0,VALID,23.2654,VALID,1,VALID,0,
2010-12-26, 02:43:04,VALID,1006.65,VALID,0,VALID,103.527,VALID,0,VALID,23.2654,VALID,1,VALID,0,
2010-12-26, 02:44:04,VALID,1006.66,VALID,0,VALID,103.535,VALID,0.105969,VALID,23.2848,VALID,1,VALID,0,
2010-12-26, 02:45:04,VALID,1006.65,VALID,0,VALID,103.52,VALID,0.105969,VALID,23.2654,VALID,1,VALID,0,
2010-12-26, 02:46:04,VALID,1006.68,VALID,0,VALID,103.527,VALID,0.105969,VALID,23.2441,VALID,1,VALID,0,
2010-12-26, 02:47:04,VALID,1006.67,VALID,0,VALID,103.535,VALID,0.105969,VALID,23.2654,VALID,1,VALID,0,
2010-12-26, 02:48:04,VALID,1006.64,VALID,0,VALID,103.527,VALID,0.105969,VALID,23.2636,VALID,1,VALID,0,
2010-12-26, 02:49:04,VALID,1006.67,VALID,0,VALID,103.527,VALID,0.105969,VALID,23.2636,VALID,1,VALID,0,
2010-12-26, 02:50:04,VALID,1006.63,VALID,0,VALID,103.558,VALID,0.105969,VALID,23.2441,VALID,1,VALID,0,
2010-12-26, 02:51:04,VALID,1006.65,VALID,0,VALID,103.542,VALID,0,VALID,23.2441,VALID,1,VALID,0,
2010-12-26, 02:52:04,VALID,1006.64,VALID,0,VALID,103.542,VALID,0.105969,VALID,23.2848,VALID,1,VALID,0,
2010-12-26, 02:53:04,VALID,1006.62,VALID,0,VALID,103.527,VALID,0.105969,VALID,23.2654,VALID,1,VALID,0,
2010-12-26, 02:54:04,VALID,1006.61,VALID,0,VALID,103.535,VALID,0,VALID,23.2654,VALID,1,VALID,0,
2010-12-26, 02:55:04,VALID,1006.59,VALID,0,VALID,103.535,VALID,0,VALID,23.2671,VALID,1,VALID,0,
2010-12-26, 02:56:04,VALID,1006.59,VALID,0,VALID,103.542,VALID,0,VALID,23.2671,VALID,1,VALID,0,
2010-12-26, 02:57:04,VALID,1006.57,VALID,0,VALID,103.573,VALID,0,VALID,23.2459,VALID,1,VALID,0,
2010-12-26, 02:58:04,VALID,1006.6,VALID,0,VALID,103.573,VALID,0,VALID,23.2459,VALID,1,VALID,0,
2010-12-26, 02:59:04,VALID,1006.57,VALID,0,VALID,103.558,VALID,0,VALID,23.2671,VALID,1,VALID,0,
2010-12-26, 03:00:04,VALID,1006.58,VALID,0,VALID,103.565,VALID,0,VALID,23.2459,VALID,1,VALID,0,
2010-12-26, 03:01:04,VALID,1006.58,VALID,0,VALID,103.55,VALID,0,VALID,23.2671,VALID,1,VALID,0,
2010-12-26, 03:02:04,VALID,1006.56,VALID,0,VALID,103.55,VALID,0,VALID,23.2671,VALID,1,VALID,0,
2010-12-26, 03:03:04,VALID,1006.54,VALID,0,VALID,103.565,VALID,0,VALID,23.2671,VALID,1,VALID,0,
2010-12-26, 03:04:04,VALID,1006.56,VALID,0,VALID,103.55,VALID,0,VALID,23.2866,VALID,1,VALID,0,
2010-12-26, 03:05:04,VALID,1006.53,VALID,0,VALID,103.542,VALID,0,VALID,23.2671,VALID,1,VALID,0,
2010-12-26, 03:06:04,VALID,1006.55,VALID,0,VALID,103.573,VALID,0,VALID,23.2671,VALID,1,VALID,0,
2010-12-26, 03:07:04,VALID,1006.52,VALID,0,VALID,103.573,VALID,0,VALID,23.2476,VALID,1,VALID,0,
2010-12-26, 03:08:04,VALID,1006.53,VALID,0,VALID,103.573,VALID,0,VALID,23.2476,VALID,1,VALID,0,
2010-12-26, 03:09:04,VALID,1006.54,VALID,0,VALID,103.581,VALID,0,VALID,23.2671,VALID,1,VALID,0,
2010-12-26, 03:10:04,VALID,1006.54,VALID,0,VALID,103.588,VALID,0,VALID,23.2459,VALID,1,VALID,0,
2010-12-26, 03:11:04,VALID,1006.53,VALID,0,VALID,103.588,VALID,0,VALID,23.2459,VALID,1,VALID,0,
2010-12-26, 03:12:04,VALID,1006.55,VALID,0,VALID,103.588,VALID,0,VALID,23.2459,VALID,1,VALID,0,
2010-12-26, 03:13:04,VALID,1006.55,VALID,0,VALID,103.603,VALID,0,VALID,23.2246,VALID,1,VALID,0,
2010-12-26, 03:14:04,VALID,1006.55,VALID,0,VALID,103.619,VALID,0,VALID,23.2264,VALID,1,VALID,0,
2010-12-26, 03:15:04,VALID,1006.55,VALID,0,VALID,103.626,VALID,0.105969,VALID,23.2051,VALID,1,VALID,0,
2010-12-26, 03:16:04,VALID,1006.54,VALID,0,VALID,103.619,VALID,0,VALID,23.2264,VALID,1,VALID,0,
2010-12-26, 03:17:04,VALID,1006.51,VALID,0,VALID,103.626,VALID,0.105969,VALID,23.2264,VALID,1,VALID,0,
2010-12-26, 03:18:04,VALID,1006.55,VALID,0,VALID,103.634,VALID,0.105969,VALID,23.2069,VALID,1,VALID,0,
2010-12-26, 03:19:04,VALID,1006.55,VALID,0,VALID,103.611,VALID,0,VALID,23.2264,VALID,1,VALID,0,
2010-12-26, 03:20:04,VALID,1006.57,VALID,0,VALID,103.634,VALID,0,VALID,23.2069,VALID,1,VALID,0,
2010-12-26, 03:21:04,VALID,1006.57,VALID,0,VALID,103.603,VALID,0,VALID,23.2459,VALID,1,VALID,0,
2010-12-26, 03:22:04,VALID,1006.55,VALID,0,VALID,103.596,VALID,0,VALID,23.2246,VALID,1,VALID,0,
2010-12-26, 03:23:04,VALID,1006.56,VALID,0,VALID,103.596,VALID,0.105969,VALID,23.2459,VALID,1,VALID,0,
2010-12-26, 03:24:04,VALID,1006.58,VALID,0,VALID,103.596,VALID,0,VALID,23.2459,VALID,1,VALID,0,
2010-12-26, 03:25:04,VALID,1006.56,VALID,0,VALID,103.642,VALID,0,VALID,23.2264,VALID,1,VALID,0,
2010-12-26, 03:26:04,VALID,1006.57,VALID,0,VALID,103.634,VALID,0,VALID,23.2069,VALID,1,VALID,0,
2010-12-26, 03:27:04,VALID,1006.56,VALID,0,VALID,103.642,VALID,0,VALID,23.1857,VALID,1,VALID,0,
2010-12-26, 03:28:04,VALID,1006.57,VALID,0,VALID,103.649,VALID,0.105969,VALID,23.2069,VALID,1,VALID,0,
2010-12-26, 03:29:04,VALID,1006.58,VALID,0,VALID,103.619,VALID,0,VALID,23.2069,VALID,1,VALID,0,
2010-12-26, 03:30:04,VALID,1006.57,VALID,0,VALID,103.634,VALID,0,VALID,23.1857,VALID,1,VALID,0,
2010-12-26, 03:31:04,VALID,1006.54,VALID,0,VALID,103.642,VALID,0,VALID,23.2069,VALID,1,VALID,0,
2010-12-26, 03:32:04,VALID,1006.52,VALID,0,VALID,103.634,VALID,0,VALID,23.2069,VALID,1,VALID,0,
2010-12-26, 03:33:04,VALID,1006.53,VALID,0,VALID,103.642,VALID,0,VALID,23.1857,VALID,1,VALID,0,
2010-12-26, 03:34:04,VALID,1006.52,VALID,0,VALID,103.687,VALID,0,VALID,23.1467,VALID,1,VALID,0,
2010-12-26, 03:35:04,VALID,1006.51,VALID,0,VALID,103.695,VALID,0,VALID,23.1679,VALID,1,VALID,0,
2010-12-26, 03:36:04,VALID,1006.53,VALID,0,VALID,103.703,VALID,0,VALID,23.1272,VALID,1,VALID,0,
2010-12-26, 03:37:04,VALID,1006.53,VALID,0,VALID,103.634,VALID,0.105969,VALID,23.1467,VALID,1,VALID,0,
2010-12-26, 03:38:04,VALID,1006.52,VALID,0,VALID,103.634,VALID,0,VALID,23.1662,VALID,3,VALID,0,
2010-12-26, 03:39:04,VALID,1006.53,VALID,0,VALID,103.619,VALID,0,VALID,23.1662,VALID,72,VALID,0.829687,
2010-12-26, 03:40:04,VALID,1006.52,VALID,0,VALID,103.611,VALID,0,VALID,23.1874,VALID,73,VALID,0.196875,
2010-12-26, 03:41:04,VALID,1006.49,VALID,0,VALID,103.642,VALID,0.105969,VALID,23.1662,VALID,73,VALID,0,
2010-12-26, 03:42:04,VALID,1006.52,VALID,0,VALID,103.649,VALID,0,VALID,23.1679,VALID,73,VALID,0,
2010-12-26, 03:43:04,VALID,1006.49,VALID,0,VALID,103.68,VALID,0,VALID,23.1485,VALID,73,VALID,0,
2010-12-26, 03:44:04,VALID,1006.5,VALID,0,VALID,103.687,VALID,0.105969,VALID,23.1272,VALID,73,VALID,0.123438,
2010-12-26, 03:45:04,VALID,1006.5,VALID,0,VALID,103.672,VALID,0,VALID,23.1272,VALID,73,VALID,0.345313,
2010-12-26, 03:46:04,VALID,1006.54,VALID,0,VALID,103.672,VALID,0,VALID,23.1485,VALID,73,VALID,0.376563,
2010-12-26, 03:47:04,VALID,1006.51,VALID,0,VALID,103.68,VALID,0.105969,VALID,23.1077,VALID,73,VALID,0.253516,
2010-12-26, 03:48:04,VALID,1006.49,VALID,0,VALID,103.703,VALID,0.105969,VALID,23.129,VALID,73,VALID,0.135156,
2010-12-26, 03:49:04,VALID,1006.47,VALID,0,VALID,103.71,VALID,0,VALID,23.1095,VALID,73,VALID,0,
2010-12-26, 03:50:04,VALID,1006.45,VALID,0,VALID,103.71,VALID,0.105969,VALID,23.0883,VALID,73,VALID,0,
2010-12-26, 03:51:04,VALID,1006.46,VALID,0,VALID,103.748,VALID,0.105969,VALID,23.09,VALID,73,VALID,0.192578,
2010-12-26, 03:52:04,VALID,1006.44,VALID,0,VALID,103.748,VALID,0.105969,VALID,23.09,VALID,73,VALID,0,
2010-12-26, 03:53:04,VALID,1006.41,VALID,0,VALID,103.771,VALID,0.105969,VALID,23.0705,VALID,73,VALID,0,
2010-12-26, 03:54:04,VALID,1006.4,VALID,0,VALID,103.764,VALID,0,VALID,23.0298,VALID,73,VALID,0,
2010-12-26, 03:55:04,VALID,1006.4,VALID,0,VALID,103.779,VALID,0.105969,VALID,23.0511,VALID,73,VALID,0,
2010-12-26, 03:56:04,VALID,1006.41,VALID,0,VALID,103.787,VALID,0.105969,VALID,23.0121,VALID,73,VALID,0,